Flag for Germany Weather past 2 weeks in Unna, North Rhine-Westphalia, Germany

Now
23 °F

Passing clouds.


Feels Like: 11 °F
Forecast: 20 / 36 °F
Wind: 14 mph from Northeast

Location: Paderborn / Lippstadt

Current Time: Dec 28, 2014 at 4:57:54 AM

Latest Report: Dec 28, 2014 at 3:50 AM


Visibility: N/A

Pressure: 29.92 "Hg

Humidity: 68%

Dew point: 14 °F

Location of UnnaLocation

Historic Weather in Unna — Graph

°F

Unna temperature yesterday

Maximum temperature yesterday: 32 °F (at 3:50 AM)
Minimum temperature yesterday: 25 °F (at 10:50 PM)
Average temperature yesterday: 30 °F

Past Weeks' High & Low Weather Summary

 TemperatureHumidityPressure
High54 °F (Dec 18, 5:50 PM)100% (Dec 16, 3:50 AM)30.36 "Hg (Dec 16, 3:50 AM)
Low23 °F (Dec 28, 12:50 AM)51% (Dec 27, 7:20 PM)29.50 "Hg (Dec 27, 1:50 PM)
Average40 °F86%29.95 "Hg
* Reported Dec 13 3:20 AM — Dec 28 3:20 AM, Unna, Weather by CustomWeather, © 2014

Note: Actual official high and low records may vary slightly from our data, if they occured in-between our weather recording intervals... More about our weather records

Advertising

Unna weather history for previous 24 hours

 ConditionsComfort  
Time TempWeatherWind HumidityBarometerVisibility
3:20 AM
Dec 28
23 °FPassing clouds.14 mph68%29.89 "HgN/A
2:50 AM23 °FPassing clouds.17 mph68%29.86 "HgN/A
2:20 AM23 °FPassing clouds.12 mph74%29.83 "HgN/A
1:50 AM23 °FPassing clouds.14 mph68%29.83 "HgN/A
1:20 AM23 °FPassing clouds.14 mph74%29.80 "HgN/A
12:50 AM23 °FPassing clouds.14 mph74%29.80 "HgN/A
12:20 AM25 °FClear.15 mph69%29.77 "Hg10 mi
11:50 PM
Dec 27
25 °FClear.15 mph69%29.74 "Hg10 mi
11:20 PM25 °FClear.17 mph69%29.74 "Hg10 mi
10:50 PM25 °FPassing clouds.17 mph69%29.71 "HgN/A
10:20 PM27 °FClear.15 mph69%29.71 "Hg10 mi
9:50 PM27 °FClear.14 mph69%29.68 "Hg10 mi
9:20 PM27 °FClear.14 mph69%29.65 "Hg10 mi
8:50 PM28 °FClear.18 mph55%29.65 "Hg10 mi
8:20 PM28 °FClear.16 mph55%29.62 "Hg10 mi
7:50 PM28 °FClear.21 mph55%29.62 "Hg10 mi
7:20 PM30 °FClear.21 mph51%29.59 "Hg10 mi
6:50 PM28 °FClear.16 mph59%29.59 "Hg10 mi
6:20 PM28 °FClear.18 mph59%29.56 "Hg10 mi
5:50 PM28 °FClear.18 mph64%29.56 "Hg10 mi
5:20 PM30 °FClear.17 mph59%29.56 "Hg10 mi
4:50 PM30 °FClear.17 mph59%29.53 "Hg10 mi
4:20 PM30 °FSunny.17 mph64%29.53 "Hg10 mi
3:50 PM30 °FBroken clouds.15 mph69%29.53 "HgN/A
3:20 PM30 °FBroken clouds.17 mph75%29.53 "Hg4 mi
2:50 PM32 °FBroken clouds.16 mph75%29.53 "Hg4 mi
2:20 PM32 °FBroken clouds.17 mph75%29.53 "Hg4 mi
1:50 PM32 °FBroken clouds.17 mph80%29.50 "Hg4 mi
1:20 PM30 °FLight snow. Ice fog.17 mph86%29.53 "Hg2 mi
1:15 PM30 °FLight snow. Ice fog.17 mph86%29.53 "Hg2 mi
12:50 PM30 °FLight snow. Ice fog.16 mph93%29.53 "Hg2 mi
12:20 PM32 °FLight snow. Ice fog.16 mph87%29.53 "Hg2 mi
11:50 AM30 °FLight snow. Ice fog.15 mph93%29.53 "Hg2 mi
11:20 AM30 °FLight snow. Ice fog.15 mph93%29.53 "Hg2 mi
10:50 AM32 °FLight snow. Broken clouds.16 mph87%29.56 "Hg5 mi
10:20 AM32 °FBroken clouds.18 mph80%29.56 "Hg5 mi
9:50 AM32 °FLight snow. Broken clouds.20 mph80%29.56 "Hg5 mi
9:20 AM32 °FLight snow. Broken clouds.17 mph80%29.59 "Hg5 mi
8:50 AM32 °FLight snow. Broken clouds.20 mph87%29.59 "Hg5 mi
8:20 AM32 °FLight snow. Partly cloudy.16 mph87%29.62 "Hg5 mi
7:50 AM32 °FLight snow. Partly cloudy.16 mph87%29.65 "HgN/A
7:20 AM32 °FPassing clouds.17 mph87%29.65 "HgN/A
6:50 AM32 °FPassing clouds.17 mph87%29.68 "HgN/A
6:20 AM32 °FPassing clouds.15 mph87%29.71 "HgN/A
5:50 AM32 °FPassing clouds.17 mph87%29.74 "HgN/A
5:20 AM32 °FPassing clouds.15 mph87%29.77 "HgN/A
4:20 AM32 °FPassing clouds.12 mph87%29.86 "HgN/A
Weather by CustomWeather, © 2014

See weather overviewHow to use our weather pages